This is the latest recevied weather packets stored in our database for station/object DB0RES-5. If no packets are shown the sender has not sent any weather packets the latest 10 day(s).
| Time | Temp. | Humidity | Pressure | Rain* | Wind** | Luminosity | Snow |
|---|---|---|---|---|---|---|---|
| 1778170563 | 15.56° C | 52% | 1017.1 hPa | 0 mm | - | - | - |
| 1778169961 | 16.11° C | 51% | 1017.2 hPa | 0 mm | - | - | - |
| 1778169359 | 16.11° C | 51% | 1017.1 hPa | 0 mm | - | - | - |
| 1778168756 | 16.67° C | 51% | 1017 hPa | 0 mm | - | - | - |
| 1778168153 | 16.11° C | 52% | 1017 hPa | 0 mm | - | - | - |
| 1778167551 | 16.11° C | 51% | 1017 hPa | 0 mm | - | - | - |
| 1778166948 | 16.11° C | 49% | 1016.9 hPa | 0 mm | - | - | - |
| 1778166346 | 16.67° C | 47% | 1016.9 hPa | 0 mm | - | - | - |
| 1778165743 | 16.11° C | 48% | 1016.9 hPa | 0 mm | - | - | - |
| 1778165141 | 15.56° C | 50% | 1016.9 hPa | 0 mm | - | - | - |
| 1778164538 | 15.56° C | 52% | 1016.8 hPa | 0 mm | - | - | - |
| 1778163938 | 15.56° C | 51% | 1017 hPa | 0 mm | - | - | - |
| 1778163333 | 16.11° C | 51% | 1017 hPa | 0 mm | - | - | - |
| 1778162730 | 16.67° C | 49% | 1017.1 hPa | 0 mm | - | - | - |
| 1778162128 | 16.11° C | 47% | 1017.1 hPa | 0 mm | - | - | - |
| 1778161525 | 16.11° C | 48% | 1017.2 hPa | 0 mm | - | - | - |
| 1778160923 | 16.11° C | 50% | 1017.2 hPa | 0 mm | - | - | - |
| 1778160320 | 16.67° C | 49% | 1017.2 hPa | 0 mm | - | - | - |
| 1778159718 | 16.11° C | 51% | 1017.2 hPa | 0 mm | - | - | - |
| 1778159115 | 16.11° C | 50% | 1017.1 hPa | 0 mm | - | - | - |
| 1778158572 | 16.67° C | 54% | 1017.1 hPa | 0 mm | - | - | - |
| 1778157970 | 16.11° C | 53% | 1017.2 hPa | 0 mm | - | - | - |
| 1778157367 | 16.67° C | 53% | 1017.1 hPa | 0 mm | - | - | - |
| 1778156765 | 16.67° C | 53% | 1017.2 hPa | 0 mm | - | - | - |
| 1778156162 | 15.56° C | 53% | 1017.1 hPa | 0 mm | - | - | - |
* Rain latest hour (hover to see other rain measurements)
** Current wind speed in m/s (hover to see current wind gust speed)